Waarnemingen

Advertentie
Mijn weer
Porto Colom, Spanje (8309): temperatuur & dauwpunt: 17.10.2018 22:00:00 - 23.10.2018 22:00:00 (CEST)Porto Colom, Spanje (8309): windsnelheid & windstoten: 17.10.2018 22:00:00 - 23.10.2018 22:00:00 (CEST)Porto Colom, Spanje (8309): windrichting: 17.10.2018 22:00:00 - 23.10.2018 22:00:00 (CEST)Porto Colom, Spanje (8309): luchtdruk: 17.10.2018 22:00:00 - 23.10.2018 22:00:00 (CEST)Porto Colom, Spanje (8309): zicht: 17.10.2018 22:00:00 - 23.10.2018 22:00:00 (CEST)Porto Colom, Spanje (8309): Zonneschijnduur: 17.10.2018 22:00:00 - 23.10.2018 22:00:00 (CEST)Porto Colom, Spanje (8309): neerslag: 17.10.2018 22:00:00 - 23.10.2018 22:00:00 (CEST)
Datum & Tijd tt [°C] td [°C] ff [km/u] ff [kn] fx [km/u] fx [kn] dd ppp [hPa] vv [km] sd [min] rr [mm]
23.10.2018 22:00:00 16,4 11,3 9 5 13 7 N 1024,1 20 0 0,0
23.10.2018 21:00:00 16,9 12,0 5 3 14 7 NNW 1024,0 20 0 0,0
23.10.2018 20:00:00 17,6 11,4 10 6 14 8 N 1024,1 20 0 -
23.10.2018 19:00:00 18,8 11,1 10 5 29 15 NNO 1023,9 20 44 0,0
23.10.2018 18:00:00 20,6 11,0 18 10 31 17 NO 1023,6 20 60 0,0
23.10.2018 17:00:00 21,6 11,9 18 10 35 19 NO 1023,5 20 60 0,0
23.10.2018 16:00:00 22,0 7,4 22 12 40 22 NNO 1023,5 20 60 0,0
23.10.2018 15:00:00 22,1 7,4 20 11 43 23 NNO 1023,8 20 60 0,0
23.10.2018 14:00:00 22,1 8,9 22 12 44 24 N 1024,4 20 60 -
23.10.2018 13:00:00 21,8 10,6 23 12 41 22 NNO 1024,9 20 60 0,0
23.10.2018 12:00:00 21,5 10,3 18 10 39 21 NNO 1025,3 20 59 0,0
23.10.2018 11:00:00 20,6 11,0 17 9 33 18 NNO 1025,3 19 59 0,0
23.10.2018 10:00:00 19,0 11,8 11 6 19 10 N 1024,8 20 60 0,0
23.10.2018 09:00:00 16,2 11,1 10 6 16 9 N 1023,9 20 12 0,0
23.10.2018 08:00:00 15,7 11,4 8 5 18 10 N 1023,2 17 0 -
23.10.2018 07:00:00 16,4 11,3 12 7 19 11 NNO 1023,0 20 0 0,0
23.10.2018 06:00:00 17,0 11,7 12 6 25 14 NNO 1022,8 18 0 0,0
23.10.2018 05:00:00 16,9 11,3 12 7 22 12 N 1022,9 20 0 0,0
23.10.2018 04:00:00 16,4 12,1 10 5 16 9 N 1022,8 20 0 0,0
23.10.2018 03:00:00 16,1 12,1 7 4 11 6 NNW 1023,0 20 0 0,0
23.10.2018 02:00:00 15,7 12,4 8 4 12 7 N 1023,3 19 0 -
23.10.2018 01:00:00 16,0 13,0 10 5 15 8 N 1023,2 18 0 0,0
23.10.2018 00:00:00 16,7 13,5 10 5 14 7 N 1023,1 17 0 0,0
22.10.2018 23:00:00 17,0 13,4 9 5 16 9 N 1022,9 17 0 0,0
22.10.2018 22:00:00 17,8 13,1 11 6 16 9 NNO 1022,6 19 0 0,0
22.10.2018 21:00:00 17,8 13,8 10 6 16 9 N 1021,8 16 0 0,0
22.10.2018 20:00:00 18,7 14,1 11 6 15 8 N 1021,2 18 0 -
22.10.2018 19:00:00 20,3 14,4 9 5 23 12 N 1020,4 20 28 0,0
22.10.2018 18:00:00 22,0 15,3 11 6 26 14 NO 1019,6 16 60 0,0
22.10.2018 17:00:00 22,6 16,0 18 10 31 17 NO 1019,0 20 60 0,0
22.10.2018 16:00:00 23,1 16,9 17 9 33 18 ONO 1018,7 19 60 0,0
22.10.2018 15:00:00 23,3 16,1 19 10 36 20 NO 1018,6 16 59 0,0
22.10.2018 14:00:00 23,0 17,0 24 13 37 20 NO 1018,5 15 58 -
22.10.2018 13:00:00 23,3 16,6 24 13 39 21 NO 1018,8 18 60 0,0
22.10.2018 12:00:00 23,1 15,7 22 12 41 22 NNO 1018,5 1,3 60 0,2
22.10.2018 11:00:00 21,4 15,7 21 11 35 19 N 1018,3 1,1 60 0,0
22.10.2018 10:00:00 20,7 17,5 13 7 26 14 N 1018,1 2,3 60 0,0
22.10.2018 09:00:00 17,8 15,1 10 5 16 9 N 1017,7 2,0 26 0,0
22.10.2018 08:00:00 16,7 14,5 11 6 17 9 NNO 1017,5 2,3 0 -
22.10.2018 07:00:00 16,0 14,5 8 4 14 7 N 1016,7 2,0 0 0,0
22.10.2018 06:00:00 16,0 14,7 9 5 10 5 N 1016,5 1,9 0 0,0
22.10.2018 05:00:00 16,8 16,0 6 4 8 5 N 1016,6 1,4 0 0,0
22.10.2018 04:00:00 17,0 16,2 7 4 9 5 N 1017,0 1,5 0 0,0
22.10.2018 03:00:00 17,7 16,6 4 2 10 5 NW 1017,5 1,5 0 0,0
22.10.2018 02:00:00 19,4 17,9 5 3 13 7 W 1017,8 2,5 0 -
22.10.2018 01:00:00 19,5 17,9 6 4 20 11 WNW 1018,1 2,5 0 0,0
22.10.2018 00:00:00 19,1 17,2 7 4 11 6 WNW 1018,4 2,2 0 0,0
21.10.2018 23:00:00 19,4 17,7 8 4 12 6 WNW 1018,1 2,9 0 0,0
21.10.2018 22:00:00 19,7 17,6 6 4 9 5 W 1017,8 4,0 0 0,0
21.10.2018 21:00:00 19,8 17,8 5 3 11 6 N 1018,0 1,5 0 0,0
21.10.2018 20:00:00 21,0 18,2 6 4 10 5 W 1018,2 2,7 0 -
21.10.2018 19:00:00 21,6 18,4 4 2 15 8 O 1017,7 1,1 20 0,0
21.10.2018 18:00:00 22,3 18,1 9 5 18 10 ONO 1017,9 0,8 60 0,0
21.10.2018 17:00:00 23,0 18,1 10 6 17 9 ONO 1018,3 0,9 60 0,0
21.10.2018 16:00:00 23,6 18,5 7 4 12 7 O 1018,5 0,8 60 0,0
21.10.2018 15:00:00 23,6 18,5 8 5 14 8 O 1019,1 0,7 60 0,0
21.10.2018 14:00:00 23,7 18,8 8 5 16 9 O 1019,9 0,6 57 -
21.10.2018 13:00:00 23,6 18,7 6 4 13 7 O 1020,7 0,7 55 0,0
21.10.2018 12:00:00 23,6 18,7 6 3 16 8 O 1020,9 0,8 60 0,0
21.10.2018 11:00:00 22,9 18,2 11 6 21 11 O 1021,0 0,7 60 0,0
21.10.2018 10:00:00 22,4 18,5 13 7 22 12 O 1021,1 0,6 54 0,0
21.10.2018 09:00:00 21,6 18,0 13 7 20 11 O 1020,9 0,6 9 0,0
21.10.2018 08:00:00 20,8 18,4 10 5 18 10 ONO 1020,4 0,8 0 -
21.10.2018 07:00:00 21,3 18,5 10 6 21 11 O 1020,5 0,6 0 0,0
21.10.2018 06:00:00 21,3 18,3 9 5 18 10 O 1020,5 0,8 0 0,0
21.10.2018 05:00:00 21,4 18,2 9 5 22 12 O 1020,5 0,7 0 0,0
21.10.2018 04:00:00 21,5 18,5 12 6 23 13 O 1020,3 0,6 0 0,0
21.10.2018 03:00:00 21,7 18,3 16 9 26 14 O 1020,6 0,7 0 0,0
21.10.2018 02:00:00 21,8 18,2 15 8 26 14 O 1020,8 0,7 0 -
21.10.2018 01:00:00 22,0 19,0 16 9 28 15 O 1020,9 0,7 0 0,0
21.10.2018 00:00:00 22,0 19,2 18 10 26 14 O 1021,1 0,8 0 0,0
20.10.2018 23:00:00 21,9 19,3 12 7 23 12 O 1021,0 0,8 0 0,0
20.10.2018 22:00:00 21,9 19,1 13 7 23 12 O 1020,7 0,8 0 0,0
20.10.2018 21:00:00 22,0 19,0 14 8 23 13 O 1020,6 0,9 0 0,0
20.10.2018 20:00:00 22,1 19,5 11 6 20 11 O 1020,4 0,9 0 -
20.10.2018 19:00:00 22,1 19,3 11 6 19 11 O 1019,9 0,9 0 0,0
20.10.2018 18:00:00 22,7 19,5 13 7 20 11 O 1019,8 1,0 60 0,0
20.10.2018 17:00:00 23,1 19,1 13 7 20 11 O 1019,8 1,2 60 0,0
20.10.2018 16:00:00 23,7 19,4 11 6 20 11 O 1019,8 1,2 60 0,0
20.10.2018 15:00:00 23,5 19,1 13 7 22 12 ONO 1019,9 1,3 58 0,0
20.10.2018 14:00:00 23,7 19,6 13 7 22 12 O 1020,3 1,5 57 -
20.10.2018 13:00:00 23,4 19,1 14 8 22 12 O 1020,9 1,7 60 0,0
20.10.2018 12:00:00 23,1 19,3 13 7 20 11 ONO 1020,4 2,2 60 0,0
20.10.2018 11:00:00 22,6 19,0 11 6 17 9 NO 1020,4 2,8 60 0,0
20.10.2018 10:00:00 20,7 19,0 9 5 12 6 N 1019,9 2,7 60 0,0
20.10.2018 09:00:00 18,2 17,2 8 5 11 6 N 1019,4 3,2 8 0,0
20.10.2018 08:00:00 17,7 16,7 10 5 11 6 N 1018,4 2,5 0 -
20.10.2018 07:00:00 17,7 16,7 9 5 10 5 NNW 1018,0 2,7 0 0,0
20.10.2018 06:00:00 18,2 17,2 7 4 13 7 N 1017,5 2,5 0 0,0
20.10.2018 05:00:00 18,8 17,9 11 6 14 7 NNO 1016,9 1,3 0 0,0
20.10.2018 04:00:00 18,6 17,8 8 5 11 6 N 1017,3 0,4 0 0,0
20.10.2018 03:00:00 18,4 17,4 9 5 11 6 N 1017,3 0,4 0 0,0
20.10.2018 02:00:00 18,8 17,9 5 3 10 5 NNW 1017,0 0,6 0 -
20.10.2018 01:00:00 18,4 17,2 8 4 9 5 N 1016,7 0,4 0 0,0
20.10.2018 00:00:00 18,7 17,4 6 3 8 5 N 1016,3 0,5 0 0,0
19.10.2018 23:00:00 18,9 17,5 8 4 10 6 N 1016,2 0,4 0 0,0
19.10.2018 22:00:00 19,9 18,0 4 2 10 5 N 1015,8 0,3 0 0,0
19.10.2018 21:00:00 21,7 18,5 9 5 13 7 Z 1015,5 0,3 0 0,0
19.10.2018 20:00:00 - - - - - - - - - - -
19.10.2018 19:00:00 22,1 18,7 7 4 15 8 ZZO 1014,3 0,4 5 0,0
19.10.2018 18:00:00 22,8 19,2 11 6 15 8 Z 1013,6 0,3 50 0,0
19.10.2018 17:00:00 24,1 19,4 6 4 13 7 ZZO 1013,4 0,4 60 0,0
19.10.2018 16:00:00 24,3 18,9 8 4 15 8 ZZO 1013,1 0,4 60 0,0
19.10.2018 15:00:00 24,7 20,0 6 4 14 7 ZZO 1013,0 0,6 59 0,0
19.10.2018 14:00:00 24,3 19,1 8 4 16 9 ZZO 1013,1 0,6 51 -
19.10.2018 13:00:00 24,1 19,6 7 4 18 10 ZZO 1013,2 0,4 56 0,0
19.10.2018 12:00:00 23,3 19,4 15 8 21 12 Z 1012,9 0,6 60 0,0
19.10.2018 11:00:00 22,7 19,8 11 6 35 19 ZZO 1012,6 0,7 14 0,0
19.10.2018 10:00:00 22,0 19,2 21 11 37 20 OZO 1012,1 0,7 6 0,2
19.10.2018 09:00:00 21,5 19,6 18 10 45 25 ZO 1011,2 0,8 0 0,0
19.10.2018 08:00:00 21,0 19,1 21 11 41 22 OZO 1010,4 0,9 0 -
19.10.2018 07:00:00 19,7 18,4 20 11 41 22 OZO 1010,0 1,3 0 1,8
19.10.2018 06:00:00 20,9 18,1 16 9 26 14 ZO 1009,7 1,0 0 0,2
19.10.2018 05:00:00 21,3 18,7 9 5 17 9 O 1009,4 1,0 0 0,0
19.10.2018 04:00:00 20,6 17,8 5 3 31 17 OZO 1009,2 5 0 0,0
19.10.2018 03:00:00 21,5 17,9 12 6 20 11 OZO 1009,2 1,7 0 0,0
19.10.2018 02:00:00 21,6 17,6 13 7 24 13 ZO 1009,2 2,5 0 -
19.10.2018 01:00:00 21,4 17,8 13 7 26 14 ZO 1009,0 2,3 0 0,0
19.10.2018 00:00:00 21,3 17,5 16 8 31 17 ZO 1008,9 2,6 0 0,0
18.10.2018 23:00:00 21,3 19,2 15 8 26 14 OZO 1008,9 2,5 0 0,0
18.10.2018 22:00:00 21,0 18,9 14 7 26 14 O 1008,2 2,6 0 0,0
18.10.2018 21:00:00 20,4 18,7 10 5 32 17 NO 1007,8 4,5 0 0,0
18.10.2018 20:00:00 20,1 18,9 18 10 33 18 ONO 1007,5 0,9 0 -
18.10.2018 19:00:00 20,1 18,6 19 10 43 23 ONO 1006,7 0,9 0 0,0
18.10.2018 18:00:00 21,0 19,3 21 11 34 19 O 1006,3 1,2 0 5,4
18.10.2018 17:00:00 19,0 16,6 25 13 49 26 O 1006,9 0,9 8 9,4
18.10.2018 16:00:00 23,2 19,6 21 11 37 20 ONO 1006,6 0,4 16 0,2
18.10.2018 15:00:00 22,6 19,0 16 9 31 17 ONO 1006,8 0,5 5 0,0
18.10.2018 14:00:00 22,6 18,8 19 10 30 16 ONO 1007,4 0,5 9 -
18.10.2018 13:00:00 22,7 18,5 18 10 30 16 O 1007,8 0,6 42 0,0
18.10.2018 12:00:00 21,0 18,9 11 6 23 13 NNO 1007,9 1,0 13 0,0
18.10.2018 11:00:00 20,0 18,2 16 9 29 15 NO 1007,8 0,9 4 0,2
18.10.2018 10:00:00 19,6 18,2 11 6 29 16 ONO 1007,9 1,2 0 0,6
18.10.2018 09:00:00 19,5 18,3 14 7 26 14 NO 1007,8 1,4 0 0,4
18.10.2018 08:00:00 19,9 17,9 14 8 29 16 NO 1007,8 1,1 0 -
18.10.2018 07:00:00 20,0 18,3 16 9 38 20 ONO 1007,9 0,8 0 0,2
18.10.2018 06:00:00 20,1 18,1 11 6 20 11 NNO 1008,0 1,3 0 0,0
18.10.2018 05:00:00 19,0 17,7 11 6 17 9 N 1008,2 1,2 0 0,0
18.10.2018 04:00:00 19,0 17,3 10 6 18 10 N 1008,7 1,1 0 0,0
18.10.2018 03:00:00 19,1 17,2 11 6 18 10 NNO 1009,1 1,1 0 0,0
18.10.2018 02:00:00 18,8 17,3 12 6 17 9 N 1009,6 1,2 0 -
18.10.2018 01:00:00 18,6 17,1 11 6 16 8 N 1010,2 1,3 0 0,0
18.10.2018 00:00:00 18,6 16,9 11 6 16 9 N 1010,7 1,2 0 0,0
17.10.2018 23:00:00 18,9 17,1 8 5 15 8 NNO 1011,2 1,1 0 0,0
17.10.2018 22:00:00 18,3 16,5 10 6 16 8 N 1011,0 1,1 0 0,0

tt = temperatuur
td = dauwpunt
ff = windsnelheid
fx = windstoten
dd = windrichting
ppp = luchtdruk
vv = zicht
sd = Zonneschijnduur
rr = neerslag

Weerstations in de omgeving